{"data":{"norad_id":65088,"epoch":"2026-05-25T02:16:23.998080Z","epoch_age_seconds":70323,"freshness":"FRESH","line1":"1 65088U 25167L   26145.09472220  .00017726  00000+0  60875-3 0  9993","line2":"2 65088  53.1599  32.0597 0001220  95.2031 264.9109 15.30223183 45178","mean_motion":15.30223183,"eccentricity":0.000122,"inclination_deg":53.1599,"raan_deg":32.0597,"arg_perigee_deg":95.2031,"mean_anomaly_deg":264.9109,"bstar":0.00060875,"rev_number":4517,"period_min":94.103920003152,"perigee_km":474.30974952629,"apogee_km":475.9819505417,"semimajor_km":6853.282850034,"source":"CELESTRAK","updated_at":"2026-05-25T13:38:20.684156Z"}}